Погода в Утане

Россия / Забайкальский край     52°34′27″N   116°58′59″E
темп.,
°C
ветер,
м/с
пор.,
м/с
влажн.,
%
обл.,
%
осадки,
мм/ч
давл.,
гПа
погр.,
м
23 апреля, пт
пт2300:00+1ссв593325 0.1 1031541
03:00−2ссв4840100 0.1 1035348
06:00−2ссв484994 0.0 1037532
09:000св5631100 0.0 1038834
12:00+3с342477 0.0 10381690
15:00+6ссз341885 0.0 10352064
18:00+7ссз5514100 0.0 10342103
21:00+3ссв22225 0.0 103610
24 апреля, сб
сб2400:000с1127100 0.0 103810
03:00−1сз1129100 0.0 103810
06:00−3ссз11345 0.0 103810
09:00+3з2323100 0.0 1037393
12:00+8зсз3419100 0.0 10341057
15:00+11з341733 0.0 10301648
18:00+12з24165 0.0 10282014
21:00+7юз222579 0.0 102812
25 апреля, вс
вс2500:00+4ссв002760 0.0 102910
03:00+2вюв1131100 0.0 102810
06:00+2всв1132100 0.0 102610
09:00+6юв232899 0.0 1024256
12:00+11ю4617100 0.0 10201257
15:00+13юз7832100 0.0 10151640
18:00+13ю2536100 0.0 10121263
21:00+9ссв2246100 0.0 101019
26 апреля, пн
пн2600:00+8в1151100 0.0 100711
03:00+7всв2461100 0.0 100477
06:00+6ссз2384100 0.4 1001105
09:00+4сз4595100 6.4 1001525
12:00+3сз3894100 4.1 1001536
15:00+10сз784885 4.1 9991725
18:00+10сз684458 0.0 9991890
21:00+5сз510585 0.1 1002351
27 апреля, вт
вт2700:00+3сз5126343 0.0 1003471
03:000сз38706 0.0 1004168
06:00−1сз36704 0.0 1005128
09:00+4ссз9114320 0.0 10051285
12:00+5ссз101227100 0.0 10061951
15:00+6ссз91024100 0.0 10062663
18:00+4с9112391 0.0 10082298
21:000ссз71439100 0.0 10111339